When you browse on this site, cookies collect data to enhance your experience and personalize the content and advertising you see.
Visit our Privacy Policy to learn more. By continuing to use the site, you agree to this use of cookies and data.
  • In United Kingdom
  • List of Countries
  • For 7 days
  • Water Temperature
  • Satellite Maps
  • Weather Map
  • Weather Widgets
  • user-avatar
    Login

    Hourly Weather Cislitsa-Prut

    Today, 20 February, Wednesday

    Time Temperature Precipitation Wind Pressure Humidity
    00:00 +5°C° 0 mm 4 mps 760 mmHg 83%
    01:00 +5°C° 0 mm 4 mps 759 mmHg 86%
    02:00 +4°C° 0 mm 4 mps 759 mmHg 89%
    03:00 +4°C° 0 mm 4 mps 759 mmHg 91%
    04:00 +4°C° 0 mm 3 mps 759 mmHg 92%
    05:00 +3°C° 0 mm 3 mps 758 mmHg 94%
    06:00 +3°C° 0 mm 3 mps 758 mmHg 93%
    07:00 +5°C° 0 mm 2 mps 758 mmHg 92%
    08:00 +5°C° 0 mm 2 mps 758 mmHg 91%
    09:00 +6°C° 0 mm 2 mps 758 mmHg 78%
    10:00 +8°C° 0 mm 2 mps 758 mmHg 65%
    11:00 +10°C° 0 mm 3 mps 758 mmHg 52%
    12:00 +11°C° 0 mm 3 mps 758 mmHg 47%
    13:00 +12°C° 0 mm 3 mps 758 mmHg 42%
    14:00 +13°C° 0 mm 3 mps 757 mmHg 36%
    15:00 +13°C° 0 mm 3 mps 758 mmHg 39%
    16:00 +13°C° 0 mm 3 mps 758 mmHg 42%
    17:00 +12°C° 0 mm 3 mps 758 mmHg 45%
    18:00 +11°C° 0 mm 3 mps 759 mmHg 50%
    19:00 +10°C° 0 mm 3 mps 759 mmHg 55%
    20:00 +8°C° 0 mm 4 mps 760 mmHg 60%
    21:00 +7°C° 0 mm 4 mps 760 mmHg 63%
    22:00 +7°C° 0 mm 4 mps 761 mmHg 66%
    23:00 +6°C° 0 mm 4 mps 761 mmHg 69%

    Tomorrow, 21 February, Thursday

    Time Temperature Precipitation Wind Pressure Humidity
    00:00 +6°C° 0 mm 4 mps 761 mmHg 69%
    01:00 +7°C° 0 mm 3 mps 762 mmHg 70%
    02:00 +5°C° 0 mm 3 mps 762 mmHg 70%
    03:00 +5°C° 0 mm 3 mps 762 mmHg 71%
    04:00 +5°C° 0 mm 2 mps 762 mmHg 72%
    05:00 +5°C° 0 mm 2 mps 762 mmHg 73%
    06:00 +5°C° 0 mm 2 mps 763 mmHg 72%
    07:00 +6°C° 0 mm 2 mps 763 mmHg 72%
    08:00 +5°C° 0 mm 3 mps 763 mmHg 72%
    09:00 +7°C° 0 mm 3 mps 763 mmHg 64%
    10:00 +7°C° 0 mm 4 mps 763 mmHg 56%
    11:00 +8°C° 0 mm 4 mps 764 mmHg 48%
    12:00 +10°C° 0 mm 4 mps 763 mmHg 45%
    13:00 +10°C° 0 mm 4 mps 763 mmHg 41%
    14:00 +11°C° 0 mm 4 mps 762 mmHg 38%
    15:00 +11°C° 0 mm 4 mps 762 mmHg 39%
    16:00 +11°C° 0 mm 3 mps 762 mmHg 41%
    17:00 +11°C° 0 mm 3 mps 762 mmHg 42%
    18:00 +10°C° 0 mm 3 mps 762 mmHg 46%
    19:00 +9°C° 0 mm 2 mps 762 mmHg 50%
    20:00 +8°C° 0 mm 2 mps 762 mmHg 54%
    21:00 +7°C° 0 mm 2 mps 762 mmHg 56%
    22:00 +7°C° 0 mm 2 mps 762 mmHg 57%
    23:00 +6°C° 0 mm 2 mps 762 mmHg 59%

    Day after tomorrow, 22 February, Friday

    Time Temperature Precipitation Wind Pressure Humidity
    00:00 +6°C° 0 mm 2 mps 761 mmHg 60%
    01:00 +6°C° 0 mm 2 mps 761 mmHg 60%
    02:00 +6°C° 0 mm 2 mps 760 mmHg 60%
    03:00 +6°C° 0 mm 2 mps 760 mmHg 62%
    04:00 +6°C° 0 mm 2 mps 759 mmHg 63%
    05:00 +5°C° 0 mm 2 mps 758 mmHg 65%
    06:00 +5°C° 0.2 mm 2 mps 758 mmHg 68%
    07:00 +5°C° 0.2 mm 2 mps 757 mmHg 72%
    08:00 +5°C° 0.2 mm 2 mps 757 mmHg 75%
    09:00 +5°C° 0.4 mm 3 mps 757 mmHg 76%
    10:00 +5°C° 0.4 mm 3 mps 757 mmHg 76%
    11:00 +7°C° 0.4 mm 3 mps 756 mmHg 77%
    12:00 +7°C° 0.4 mm 3 mps 756 mmHg 75%
    13:00 +6°C° 0.4 mm 4 mps 756 mmHg 73%
    14:00 +7°C° 0.4 mm 4 mps 756 mmHg 71%
    15:00 +4°C° 0.4 mm 6 mps 757 mmHg 71%
    16:00 0°C° 0.4 mm 9 mps 758 mmHg 70%
    17:00 -3°C° 0.4 mm 11 mps 759 mmHg 70%
    18:00 -4°C° 0 mm 11 mps 761 mmHg 65%
    19:00 -4°C° 0 mm 11 mps 762 mmHg 60%
    20:00 -6°C° 0 mm 11 mps 764 mmHg 55%
    21:00 -7°C° 0 mm 11 mps 764 mmHg 53%
    22:00 -8°C° 0 mm 10 mps 765 mmHg 51%
    23:00 -9°C° 0 mm 10 mps 766 mmHg 50%

    23 February, Saturday

    Time Temperature Precipitation Wind Pressure Humidity
    00:00 -9°C° 0 mm 9 mps 766 mmHg 48%
    01:00 -9°C° 0 mm 9 mps 766 mmHg 46%
    02:00 -9°C° 0 mm 9 mps 767 mmHg 45%
    03:00 -9°C° 0 mm 9 mps 767 mmHg 44%
    04:00 -8°C° 0 mm 8 mps 767 mmHg 44%
    05:00 -8°C° 0 mm 8 mps 767 mmHg 44%
    06:00 -8°C° 0 mm 8 mps 768 mmHg 43%
    07:00 -8°C° 0 mm 8 mps 768 mmHg 42%
    08:00 -8°C° 0 mm 8 mps 768 mmHg 41%
    09:00 -8°C° 0 mm 8 mps 769 mmHg 39%
    10:00 -7°C° 0 mm 8 mps 769 mmHg 38%
    11:00 -6°C° 0 mm 8 mps 769 mmHg 37%
    12:00 -6°C° 0 mm 8 mps 769 mmHg 37%
    13:00 -6°C° 0 mm 8 mps 769 mmHg 37%
    14:00 -6°C° 0 mm 8 mps 769 mmHg 37%
    15:00 -6°C° 0 mm 7 mps 769 mmHg 38%
    16:00 -6°C° 0 mm 7 mps 769 mmHg 40%
    17:00 -6°C° 0 mm 7 mps 769 mmHg 41%
    18:00 -6°C° 0 mm 6 mps 769 mmHg 44%
    19:00 -6°C° 0 mm 6 mps 769 mmHg 47%
    20:00 -6°C° 0 mm 5 mps 769 mmHg 50%
    21:00 -6°C° 0 mm 5 mps 769 mmHg 50%
    22:00 -6°C° 0 mm 5 mps 769 mmHg 51%
    23:00 -5°C° 0 mm 4 mps 769 mmHg 52%

    24 February, Sunday

    Time Temperature Precipitation Wind Pressure Humidity
    00:00 -7°C° 0 mm 5 mps 769 mmHg 52%
    01:00 -7°C° 0 mm 5 mps 768 mmHg 53%
    02:00 -7°C° 0 mm 5 mps 768 mmHg 54%
    03:00 -7°C° 0 mm 5 mps 768 mmHg 54%
    04:00 -7°C° 0 mm 5 mps 768 mmHg 54%
    05:00 -7°C° 0 mm 5 mps 768 mmHg 55%
    06:00 -7°C° 0 mm 5 mps 768 mmHg 54%
    07:00 -8°C° 0 mm 6 mps 768 mmHg 54%
    08:00 -8°C° 0 mm 6 mps 768 mmHg 53%
    09:00 -6°C° 0 mm 6 mps 768 mmHg 49%
    10:00 -6°C° 0 mm 7 mps 768 mmHg 44%
    11:00 -6°C° 0 mm 7 mps 768 mmHg 40%
    12:00 -4°C° 0 mm 7 mps 768 mmHg 38%
    13:00 -3°C° 0 mm 7 mps 768 mmHg 37%
    14:00 -3°C° 0 mm 7 mps 767 mmHg 36%
    15:00 -3°C° 0 mm 7 mps 767 mmHg 37%
    16:00 -4°C° 0 mm 6 mps 767 mmHg 38%
    17:00 -4°C° 0 mm 6 mps 767 mmHg 39%
    18:00 -5°C° 0 mm 6 mps 768 mmHg 42%
    19:00 -5°C° 0 mm 6 mps 768 mmHg 44%
    20:00 -6°C° 0 mm 5 mps 768 mmHg 47%
    21:00 -6°C° 0 mm 5 mps 768 mmHg 48%
    22:00 -6°C° 0 mm 5 mps 768 mmHg 50%
    23:00 -7°C° 0 mm 5 mps 768 mmHg 51%

    25 February, Monday

    Time Temperature Precipitation Wind Pressure Humidity
    00:00 -7°C° 0 mm 5 mps 768 mmHg 52%
    01:00 -7°C° 0 mm 5 mps 768 mmHg 52%
    02:00 -7°C° 0 mm 5 mps 768 mmHg 53%
    03:00 -7°C° 0 mm 5 mps 768 mmHg 51%
    04:00 -8°C° 0 mm 6 mps 767 mmHg 50%
    05:00 -8°C° 0 mm 6 mps 767 mmHg 48%
    06:00 -8°C° 0 mm 6 mps 767 mmHg 46%
    07:00 -8°C° 0 mm 6 mps 767 mmHg 44%
    08:00 -8°C° 0 mm 7 mps 767 mmHg 42%
    09:00 -7°C° 0 mm 7 mps 767 mmHg 38%
    10:00 -6°C° 0 mm 7 mps 766 mmHg 34%
    11:00 -4°C° 0 mm 7 mps 766 mmHg 30%
    12:00 -3°C° 0 mm 7 mps 765 mmHg 31%
    13:00 -3°C° 0 mm 7 mps 765 mmHg 31%
    14:00 -2°C° 0 mm 6 mps 764 mmHg 32%
    15:00 -2°C° 0 mm 6 mps 763 mmHg 39%
    16:00 -2°C° 0 mm 5 mps 762 mmHg 46%
    17:00 -2°C° 0 mm 4 mps 762 mmHg 53%
    18:00 -2°C° 0.1 mm 3 mps 762 mmHg 59%
    19:00 -2°C° 0.1 mm 3 mps 761 mmHg 65%
    20:00 -3°C° 0.1 mm 2 mps 761 mmHg 71%
    21:00 -3°C° 0 mm 2 mps 761 mmHg 69%
    22:00 -4°C° 0 mm 2 mps 760 mmHg 67%
    23:00 -4°C° 0 mm 2 mps 760 mmHg 65%
    Show more